EW9931 Weather Reports


time (UTC)temp
C
wind
direction
speed
KPH
gust
KPH
rain 1hr
cm
rain 24hr
cm
rain mn
cm
humidity
%
barometer
mb
20260901224601 18 210 3.2 0.0 0.00 0.00 0.00 20 1005.4
20260901223057 17 185 4.8 0.0 0.00 0.00 0.00 20 1005.8
20260901221624 17 212 9.7 0.0 0.00 0.00 0.00 20 1006.3
20260901220115 17 219 8.0 0.0 0.00 0.00 0.00 19 1005.9
20260901214554 17 23 4.8 0.0 0.00 0.00 0.00 19 1005.6
20260901213104 17 191 6.4 0.0 0.00 0.00 0.00 17 1005.8
20260901211545 17 124 6.4 0.0 0.00 0.00 0.00 16 1006.3
20260901210040 17 112 4.8 0.0 0.00 0.00 0.00 16 1006.2
20260901204536 17 162 6.4 0.0 0.00 0.00 0.00 17 1006.2
20260901203033 17 130 6.4 0.0 0.00 0.00 0.00 17 1006.3
20260901201533 17 160 8.0 0.0 0.00 0.00 0.00 17 1006.4
20260901200036 17 195 6.4 0.0 0.00 0.00 0.00 18 1006.3
20260901194525 17 184 8.0 0.0 0.00 0.00 0.00 18 1006.5
20260901193021 16 224 9.7 0.0 0.00 0.00 0.00 19 1006.6
20260901191523 16 167 8.0 0.0 0.00 0.00 0.00 19 1006.8
20260901190021 16 195 8.0 0.0 0.00 0.00 0.00 18 1007.3
20260901184513 16 217 6.4 0.0 0.00 0.00 0.00 19 1007.4
20260901183011 16 144 6.4 0.0 0.00 0.00 0.00 16 1007.4
20260901181518 15 189 6.4 0.0 0.00 0.00 0.00 15 1007.8
20260901180009 15 198 4.8 0.0 0.00 0.00 0.00 16 1007.4
20260901174508 15 203 8.0 0.0 0.00 0.00 0.00 17 1007.8
20260901173006 14 181 6.4 0.0 0.00 0.00 0.00 17 1007.4
20260901171505 14 219 6.4 0.0 0.00 0.00 0.00 19 1007.3
20260901170004 14 212 4.8 0.0 0.00 0.00 0.00 18 1007.3
20260901164503 14 130 6.4 0.0 0.00 0.00 0.00 16 1007.3
20260901163002 13 206 8.0 0.0 0.00 0.00 0.00 16 1007.0
20260901161601 13 216 4.8 0.0 0.00 0.00 0.00 16 1006.9
20260901160115 13 167 3.2 0.0 0.00 0.00 0.00 17 1007.3
20260901154558 13 210 4.8 0.0 0.00 0.00 0.00 16 1007.2
20260901153109 13 192 4.8 0.0 0.00 0.00 0.00 17 1007.1
20260901151556 12 200 4.8 0.0 0.00 0.00 0.00 17 1007.1
20260901150108 12 121 4.8 0.0 0.00 0.00 0.00 17 1007.0
20260901144555 12 202 4.8 0.0 0.00 0.00 0.00 20 1006.9
20260901143111 12 185 4.8 0.0 0.00 0.00 0.00 26 1006.9
20260901141552 12 133 3.2 0.0 0.00 0.00 0.00 27 1006.5
20260901140127 12 208 3.2 0.0 0.00 0.00 0.00 32 1006.3
20260901134546 12 182 3.2 0.0 0.00 0.00 0.00 26 1006.3
20260901133044 12 216 4.8 0.0 0.00 0.00 0.00 24 1006.1
20260901131544 12 176 4.8 0.0 0.00 0.00 0.00 24 1005.9
20260901130043 12 150 1.6 0.0 0.00 0.00 0.00 17 1005.6
20260901124540 11 137 1.6 0.0 0.00 0.00 0.00 17 1005.5
20260901123039 11 124 1.6 0.0 0.00 0.00 0.00 16 1005.5
20260901121537 11 176 1.6 0.0 0.00 0.00 0.00 17 1005.4
20260901120035 11 145 3.2 0.0 0.00 0.00 0.00 17 1004.4
20260901114535 11 185 1.6 0.0 0.00 0.00 0.00 17 1004.5
20260901113036 12 130 3.2 0.0 0.00 0.00 0.00 17 1004.7
20260901111532 12 154 1.6 0.0 0.00 0.00 0.00 17 1004.6
20260901110029 12 202 1.6 0.0 0.00 0.00 0.00 17 1003.7
20260901104528 12 148 3.2 0.0 0.00 0.00 0.00 18 1003.8
20260901103026 12 150 1.6 0.0 0.00 0.00 0.00 21 1003.9
20260901101550 12 195 1.6 0.0 0.00 0.00 0.00 22 1003.9
20260901100027 12 181 0.0 0.0 0.00 0.00 0.00 23 1003.6
20260901094534 12 196 0.0 0.0 0.00 0.00 0.00 37 1003.5
20260901093016 12 188 0.0 0.0 0.00 0.00 0.00 37 1003.6
20260901091511 12 210 0.0 0.0 0.00 0.00 0.00 37 1003.6
20260901090008 12 144 1.6 0.0 0.00 0.00 0.00 37 1003.1
20260901084503 12 152 1.6 0.0 0.00 0.00 0.00 37 1003.2
20260901083058 12 229 3.2 0.0 0.00 0.00 0.00 37 1003.4
20260901081600 12 148 1.6 0.0 0.00 0.00 0.00 37 1003.6
20260901080141 12 196 0.0 0.0 0.00 0.00 0.00 37 1004.2
20260901074549 12 133 0.0 0.0 0.00 0.00 0.00 36 1004.2
20260901073051 12 145 0.0 0.0 0.00 0.00 0.00 36 1004.3
20260901071548 12 127 0.0 0.0 0.00 0.00 0.00 41 1004.4
20260901070053 12 143 0.0 0.0 0.00 0.00 0.00 44 1004.9
20260901064554 12 137 0.0 0.0 0.00 0.00 0.00 45 1005.0
20260901063056 12 213 0.0 0.0 0.00 0.00 0.00 44 1004.4
20260901061559 12 157 0.0 0.0 0.00 0.00 0.00 40 1004.5
20260901060045 13 136 0.0 0.0 0.00 0.00 0.00 39 1005.2
20260901054550 13 137 0.0 0.0 0.00 0.00 0.00 41 1005.2
20260901053044 13 189 0.0 0.0 0.00 0.00 0.00 38 1005.2
20260901051544 13 154 0.0 0.0 0.00 0.00 0.00 37 1005.3
20260901050043 13 154 0.0 0.0 0.00 0.00 0.00 35 1005.4
20260901044559 13 130 0.0 0.0 0.00 0.00 0.00 35 1005.5
20260901043043 12 134 0.0 0.0 0.00 0.00 0.00 38 1005.7
20260901041542 12 127 0.0 0.0 0.00 0.00 0.00 52 1005.2
20260901040054 12 145 0.0 0.0 0.00 0.00 0.00 62 1005.5
20260901034541 12 144 0.0 0.0 0.00 0.00 0.00 65 1005.1
20260901033040 13 152 0.0 0.0 0.00 0.00 0.00 67 1004.6
20260901031539 13 137 1.6 0.0 0.00 0.00 0.00 69 1004.5
20260901030039 13 126 1.6 0.0 0.00 0.00 0.00 70 1004.8
20260901024547 13 157 0.0 0.0 0.00 0.00 0.00 70 1004.5
20260901023038 13 124 1.6 0.0 0.00 0.00 0.00 66 1004.6
20260901021543 13 175 0.0 0.0 0.00 0.00 0.00 62 1004.1
20260901020038 14 134 1.6 0.0 0.00 0.00 0.00 62 1004.5
20260901014533 14 186 3.2 0.0 0.00 0.00 0.00 61 1004.7
20260901013034 15 223 3.2 0.0 0.00 0.00 0.00 59 1004.3
20260901011532 15 114 3.2 0.0 0.00 0.00 0.00 57 1003.7
20260901010030 16 196 4.8 0.0 0.00 0.00 0.00 54 1004.0
20260901004530 16 205 3.2 0.0 0.00 0.00 0.00 52 1003.5
20260901003033 17 90 3.2 0.0 0.00 0.00 0.00 49 1003.5
20260901001532 18 213 1.6 0.0 0.00 0.00 0.00 45 1003.3
20260901000027 18 212 3.2 0.0 0.00 0.00 0.00 44 1003.4
20260831234532 18 222 3.2 0.0 0.00 0.00 0.00 43 1002.9
20260831233026 18 210 3.2 0.0 0.00 0.00 0.00 40 1003.0
20260831231538 18 220 3.2 0.0 0.00 0.00 0.00 40 1002.9
20260831230029 20 157 1.6 0.0 0.00 0.00 0.00 36 1002.7